Dewpoint
53 53 53 53 53 53 52 52 51 51 50 49 48 48 48 48 47 47 46 44 42 42 41 39 38 37 35 35 39 41 42 43 41 35 34 34 34 32 32 33 31 30 29
51 51 52 52 51 51 51 50 51 50 50 49 48 48 47 46 46 46 44 40 41 39 38 37 34 29 35 35 34 38 39 41 39 34 32 32 32 32 33 33 30 27 28
49 50 50 50 49 49 48 48 47 47 47 47 47 47 46 46 44 44 43 41 39 37 36 36 35 35 36 35 35 32 33 30 34 32 31 32 32 30 30 31 30 31 27
48 47 48 47 46 47 46 46 46 46 45 45 45 45 46 45 43 42 40 38 37 35 36 37 35 35 35 35 33 35 32 30 29 27 27 29 29 29 29 27 30 32 27
45 45 46 46 45 45 46 46 46 46 44 44 44 44 44 43 40 41 38 38 36 35 36 34 36 34 32 32 32 33 32 26 25 23 22 25 28 29 28 28 28 28 27
42 43 43 44 43 44 44 43 43 43 42 42 42 42 42 39 35 36 38 38 35 35 35 34 33 32 31 29 28 27 31 32 31 30 29 28 31 30 29 27 25 24 23
43 43 43 43 43 43 41 41 42 42 43 42 42 42 42 41 35 35 35 37 36 36 35 33 30 30 31 30 28 27 26 26 27 31 29 26 27 28 26 22 22 21 20
43 41 42 42 42 42 40 38 38 39 37 37 37 38 37 38 35 35 35 37 36 36 34 32 31 30 29 29 28 27 28 26 24 19 25 26 25 26 25 22 21 20 23
37 37 36 36 35 34 34 34 35 34 34 35 35 35 36 35 35 34 35 36 34 33 31 30 29 29 26 24 24 27 29 28 27 24 25 23 22 25 26 21 19 18 24
38 36 35 35 35 34 34 34 34 34 33 37 34 34 34 33 33 33 34 34 32 31 30 29 21 26 23 22 27 27 26 25 26 26 27 26 26 27 24 33 24 20 25
36 36 35 36 35 34 35 35 34 34 34 33 33 33 34 34 33 32 32 34 33 29 28 28 28 21 21 22 23 27 25 24 23 24 24 25 25 26 27 29 29 28 25
36 35 35 35 35 35 35 34 34 34 33 33 33 33 34 33 33 30 29 32 31 31 30 29 28 22 22 21 23 21 20 21 24 24 23 23 23 24 24 25 25 25 27
35 34 34 35 35 36 35 34 34 34 34 33 31 32 32 33 33 29 28 29 29 32 32 30 27 27 22 22 21 20 20 24 23 22 21 21 22 22 22 22 23 23 23
36 35 35 34 34 35 34 33 32 32 31 30 30 29 30 30 31 31 29 29 27 29 28 29 27 24 25 23 21 21 23 24 23 22 21 21 22 21 20 21 21 21 19
36 36 34 34 34 33 32 32 30 32 29 29 30 30 29 29 31 29 28 29 29 29 28 27 26 24 22 22 22 21 22 22 22 22 21 21 21 20 19 19 18 18 18
35 35 34 33 33 32 30 30 28 28 27 27 28 30 32 30 27 26 25 25 24 25 27 25 23 23 23 21 19 20 20 19 20 20 21 20 19 19 19 19 18 18 17
34 32 32 31 31 31 30 28 27 29 27 27 26 27 27 27 26 26 25 24 24 23 25 24 23 22 21 18 18 17 17 18 17 18 18 19 20 19 18 17 17 16 16
35 31 32 33 33 33 32 32 30 28 27 27 27 27 26 27 26 25 24 23 21 21 22 21 21 21 18 16 15 15 15 17 17 17 18 19 19 17 17 15 14 15 13
33 33 34 34 34 33 33 31 30 29 28 26 27 27 27 27 25 24 23 27 24 21 20 18 19 17 16 15 19 20 21 20 20 20 19 18 20 15 14 13 13 12 11
33 32 32 32 31 31 30 28 27 27 27 26 26 25 25 25 26 25 25 26 24 20 19 16 15 15 17 18 22 23 22 21 20 19 20 20 20 17 15 13 14 13 9
31 31 30 30 30 28 27 26 26 26 25 25 27 27 25 24 24 23 22 23 22 19 21 18 18 19 21 21 18 21 18 19 18 17 18 18 20 17 15 15 14 11 8
30 28 28 28 27 27 26 26 26 25 25 25 27 27 25 28 25 24 23 23 23 22 20 20 19 19 19 19 20 23 21 21 20 18 18 17 17 17 15 15 15 16 12
27 27 26 26 26 27 27 25 26 27 26 26 25 24 25 26 25 23 24 26 24 24 22 22 24 22 24 25 24 23 21 20 20 20 19 18 16 16 16 15 14 16 14
27 27 25 26 27 26 27 29 27 25 25 26 26 26 25 27 27 26 25 24 23 24 24 24 24 23 24 25 25 23 20 21 20 20 19 18 16 15 16 15 15 14 13
29 28 28 27 27 27 27 27 27 27 27 26 26 26 25 25 25 25 25 23 22 24 23 23 23 23 23 21 22 21 20 18 20 18 20 18 16 15 15 16 15 12 11
28 27 26 27 27 27 27 27 27 27 27 27 27 26 25 25 25 26 23 22 21 22 22 23 23 21 21 20 20 19 18 17 18 17 19 17 18 18 17 14 13 12 11
Lifted_Index
1 1 1 1 2 2 2 3 3 3 3 3 3 3 3 3 4 4 4 4 4 5 5 5 6 7 8 9 9 9 8 8 7 8 8 10 12 15 17 19 20 20 21
1 2 2 2 2 2 3 3 3 3 3 2 2 2 3 3 3 3 3 4 4 4 5 5 6 6 7 9 10 10 10 9 8 8 8 10 12 15 17 18 19 20 21
2 2 2 3 3 3 4 4 4 3 3 2 2 2 3 3 3 3 3 3 4 4 5 5 6 6 7 9 11 11 11 11 10 10 10 11 13 15 17 18 18 20 20
3 3 3 4 4 4 4 4 4 4 3 3 3 3 3 3 3 3 3 3 4 4 5 6 6 7 7 9 11 12 12 11 11 10 11 11 12 14 15 16 17 19 20
3 3 4 5 5 5 5 4 4 4 4 4 4 3 3 3 3 3 3 4 4 5 6 6 7 7 8 9 11 11 11 10 10 9 9 10 10 11 13 14 16 18 18
3 4 4 5 5 5 5 5 5 5 5 5 4 4 4 4 4 4 4 4 5 5 6 7 8 8 9 10 11 11 11 10 9 9 8 9 10 11 12 14 16 17 17
3 4 4 4 5 5 5 5 5 6 6 6 5 5 4 4 4 5 5 5 6 6 7 8 9 9 10 11 11 11 11 11 11 10 10 11 12 13 14 15 16 17 17
3 4 4 4 5 5 6 6 7 7 7 6 5 5 5 5 5 6 6 6 7 7 8 9 10 11 11 12 12 12 12 12 12 12 13 13 14 15 15 16 16 17 18
4 5 5 5 6 6 7 7 7 7 7 6 6 6 6 6 7 7 7 7 8 9 10 10 11 12 12 13 13 13 13 13 14 14 15 15 16 16 16 17 17 17 17
5 6 6 6 7 7 7 7 7 7 7 7 6 7 7 7 8 8 8 9 9 10 11 11 12 13 14 15 15 15 14 15 15 16 16 16 17 17 18 18 18 17 17
5 5 6 6 7 7 6 6 7 7 6 6 7 7 8 8 9 9 10 10 11 11 11 12 13 14 15 16 17 17 17 17 18 18 17 17 18 18 18 18 18 18 18
4 4 5 6 6 6 5 6 6 6 6 7 7 8 9 9 10 11 11 12 12 12 12 12 13 14 15 16 17 18 18 19 19 18 18 18 18 18 19 19 19 19 19
4 4 5 5 6 5 5 5 6 6 6 7 7 8 9 10 11 12 12 13 13 13 13 13 14 15 16 17 18 18 19 19 19 18 18 18 18 18 19 19 19 19 19
4 4 5 5 5 5 6 6 6 7 7 8 8 9 10 11 11 12 13 13 14 14 14 15 15 16 17 17 18 18 19 19 19 18 18 18 19 19 19 19 19 19 19
4 4 5 5 6 6 6 7 8 8 9 9 10 10 11 11 12 13 14 14 15 15 15 15 16 16 16 17 18 18 18 19 19 19 19 19 19 19 19 19 19 19 18
4 4 5 6 6 7 7 8 9 10 10 11 11 11 12 12 13 14 14 15 15 15 15 15 16 16 16 17 17 18 18 19 19 19 19 19 18 18 19 19 19 19 18
4 4 5 6 7 7 8 8 9 10 10 11 12 12 13 13 14 14 15 15 15 15 15 15 16 16 17 17 17 18 18 18 19 19 19 19 19 19 19 19 19 18 18
5 5 6 7 8 8 9 9 9 9 10 10 12 12 13 13 14 14 15 15 15 15 15 15 16 17 18 18 18 18 18 18 19 19 19 19 19 19 19 19 19 18 18
5 6 7 8 9 9 10 10 10 9 10 10 11 12 13 14 14 14 15 15 15 15 16 16 17 17 18 18 18 18 18 18 19 19 19 19 19 19 18 18 18 18 18
6 7 8 9 9 10 10 10 10 10 10 11 12 12 13 13 14 14 15 16 16 16 16 16 17 18 18 18 18 18 18 18 18 18 18 18 18 18 18 18 18 18 18
7 8 9 9 9 10 10 10 10 10 11 11 12 13 13 14 14 15 15 16 16 16 17 16 17 17 17 17 17 17 17 18 18 18 18 18 18 18 18 18 17 17 16
7 8 9 9 10 10 10 10 10 10 11 11 12 13 13 14 14 15 15 16 16 16 16 16 16 16 16 16 16 16 16 16 17 17 17 17 17 17 17 17 16 16 15
8 8 9 9 9 10 10 10 10 10 11 11 12 12 13 14 14 15 15 15 16 16 16 15 15 15 15 15 15 15 15 15 16 16 17 17 17 17 16 16 16 15 15
9 9 9 9 9 9 10 10 10 10 11 11 12 12 13 13 14 14 15 15 15 15 15 15 15 15 15 15 15 15 15 16 16 16 16 16 16 16 16 16 16 16 16
9 9 9 9 9 9 9 10 10 11 11 11 12 12 13 13 14 14 15 15 15 15 15 15 15 15 15 15 15 16 16 16 16 17 17 17 16 16 16 16 16 16 16
8 9 9 9 9 9 9 10 10 11 11 12 12 13 13 13 14 14 15 15 15 15 15 15 15 15 15 15 16 16 16 16 16 17 17 16 16 16 16 16 16 16 17